Bay Area Logo

Salinas, CA Condo Real Estate Listings

33 Total Real Estate Listings * Click on table heading to sort
Date Posted Property Type Style Address Price Living Area Lot Size Price/Sq Ft.
2018-07-18 Condo 2432 Main Street Salinas, CA 93906 $195,000 1,151 sq. ft. 1,307 sq. ft. $169
2018-07-17 Condo 1793 Cherokee Drive Salinas, CA 93906 $299,000 986 sq. ft. 871 sq. ft. $303
2018-07-07 Condo 2406 Main Street Salinas, CA 93906 $235,000 932 sq. ft. 1,307 sq. ft. $252
2018-06-29 Condo 1865 Cherokee Drive Salinas, CA 93906 $249,900 875 sq. ft. 871 sq. ft. $286
2018-06-27 Condo 417 Tyler Place Salinas, CA 93906 $227,900 683 sq. ft. $334
2018-06-26 Condo 114 Nissen Road Salinas, CA 93901 $525,000 1,341 sq. ft. 3,049 sq. ft. $392
2018-06-22 Condo 1851 Cherokee Drive Salinas, CA 93906 $285,000 952 sq. ft. 436 sq. ft. $299
2018-06-20 Condo 1050 Padre Drive Salinas, CA 93901 $359,000 936 sq. ft. $384
2018-06-19 Condo 2416 Main Street Salinas, CA 93906 $229,000 932 sq. ft. 1,307 sq. ft. $246
2018-06-18 Condo 1056 Padre Drive Salinas, CA 93901 $320,000 766 sq. ft. 270,508 sq. ft. $418
2018-06-14 Condo Traditional 2418 Main Street Salinas, CA 93906 $249,000 1,151 sq. ft. 1,307 sq. ft. $216
2018-06-13 Condo Traditional 2390 Main Street Salinas, CA 93906 $160,000 820 sq. ft. 871 sq. ft. $195
2018-06-11 Condo 2434 Main Street Salinas, CA 93906 $259,000 1,151 sq. ft. 1,307 sq. ft. $225
2018-06-05 Condo 1884 Cherokee Drive Salinas, CA 93906 $355,000 1,621 sq. ft. 1,307 sq. ft. $219
2018-06-01 Condo 14130 Reservation Road Salinas, CA 93908 $639,000 1,744 sq. ft. 4,792 sq. ft. $366
2018-05-29 Condo 1884 Cherokee Drive Salinas, CA 93906 $365,000 1,621 sq. ft. 1,742 sq. ft. $225
2018-05-10 Condo 208 Martella Street Salinas, CA 93901 $362,000 1,553 sq. ft. 1,307 sq. ft. $233
2018-03-16 Condo 405 Tyler Place Salinas, CA 93906 $240,000 884 sq. ft. 871 sq. ft. $271
2018-03-07 Condo Traditional 2414 Main Street Salinas, CA 93906 $239,000 1,151 sq. ft. 871 sq. ft. $208
2018-01-03 Condo 104 Rossi Street Salinas, CA 93901 $199,000 639 sq. ft. 436 sq. ft. $311
2017-08-07 Condo 166 Kern Street Salinas, CA 93905 $260,000 1,073 sq. ft. $242
2017-06-21 Condo 409 Tyler Pl O Salinas, CA 93906 $229,000 884 sq. ft. 767 sq. ft. $259
2017-06-21 Condo 405 Tyler Pl F Salinas, CA 93906 $249,900 932 sq. ft. 976 sq. ft. $268
2017-06-07 Condo 23799 Monterey Salinas Hwy 9 Salinas, CA 93908 $645,000 1,403 sq. ft. 2,335 sq. ft. $460
2017-06-07 Condo 919 Acosta Plz 32 Salinas, CA 93905 $190,000 1,034 sq. ft. 862 sq. ft. $184
2017-06-06 Condo 144 Nissen Rd 4 Salinas, CA 93901 $490,000 1,341 sq. ft. 2,940 sq. ft. $365
2017-06-03 Condo 19219 Creekside Ln Salinas, CA 93908 $530,000 1,510 sq. ft. 1,786 sq. ft. $351
2017-05-08 Condo 1021 Polk St 19 Salinas, CA 93906 $365,000 1,359 sq. ft. 1,437 sq. ft. $269
2017-04-27 Condo 1253 Nogal Dr 17d Salinas, CA 93905 $314,900 1,513 sq. ft. 1,176 sq. ft. $208
2017-03-24 Condo 1295 Nogal Dr B Salinas, CA 93905 $308,000 1,513 sq. ft. 1,133 sq. ft. $204
2017-03-15 Condo Traditional 1310 Primavera St 110 Salinas, CA 93901 $397,000 1,580 sq. ft. 1,568 sq. ft. $251
2017-03-07 Condo Contemporary 1811 Cherokee Dr 1 Salinas, CA 93906 $208,000 924 sq. ft. 828 sq. ft. $225
2016-05-05 Condo Traditional 916 Acosta Plz 20 Salinas, CA 93905 $190,000 1,034 sq. ft. 784 sq. ft. $184